This is the latest recevied weather packets stored in our database for station/object W6MAF. If no packets are shown the sender has not sent any weather packets the latest 10 day(s).
| Time | Temp. | Humidity | Pressure | Rain* | Wind** | Luminosity | Snow |
|---|---|---|---|---|---|---|---|
| 1788350558 | 15.56° C | 14% | - | 0 mm | 1.34 m/s, 179° | - | - |
| 1788350260 | 15.56° C | 13% | - | 0 mm | 0 m/s | - | - |
| 1788349962 | 15.56° C | 13% | - | 0 mm | 4.02 m/s, 184° | - | - |
| 1788349717 | 15.56° C | 14% | - | 0 mm | 3.58 m/s, 184° | - | - |
| 1788349664 | 15.56° C | 14% | - | 0 mm | 3.58 m/s, 184° | - | - |
| 1788349364 | 15.56° C | 15% | - | 0 mm | 0.89 m/s, 177° | - | - |
| 1788349066 | 15.56° C | 15% | - | 0 mm | 0.89 m/s, 166° | - | - |
| 1788348768 | 15.56° C | 14% | - | 0 mm | 3.13 m/s, 193° | - | - |
| 1788348470 | 15.56° C | 14% | - | 0 mm | 0.45 m/s, 118° | - | - |
| 1788348173 | 15.56° C | 12% | - | 0 mm | 0 m/s | - | - |
| 1788347875 | 15° C | 12% | - | 0 mm | 0.45 m/s, 260° | - | - |
| 1788347574 | 14.44° C | 13% | - | 0 mm | 1.79 m/s, 150° | - | - |
| 1788347277 | 14.44° C | 15% | - | 0 mm | 0.45 m/s, 172° | - | - |
| 1788346980 | 13.89° C | 17% | - | 0 mm | 0.89 m/s, 218° | - | - |
| 1788346681 | 13.89° C | 20% | - | 0 mm | 0 m/s | - | - |
| 1788346383 | 13.89° C | 21% | - | 0 mm | 0.45 m/s, 153° | - | - |
| 1788346086 | 13.89° C | 21% | - | 0 mm | 0.45 m/s, 174° | - | - |
| 1788345785 | 13.89° C | 21% | - | 0 mm | 0.45 m/s, 174° | - | - |
| 1788345487 | 13.89° C | 21% | - | 0 mm | 0.89 m/s, 195° | - | - |
| 1788345189 | 13.89° C | 20% | - | 0 mm | 0.89 m/s, 165° | - | - |
| 1788344891 | 13.89° C | 20% | - | 0 mm | 0.45 m/s, 250° | - | - |
| 1788344594 | 13.89° C | 19% | - | 0 mm | 0.45 m/s, 203° | - | - |
| 1788344296 | 13.89° C | 18% | - | 0 mm | 0.45 m/s, 256° | - | - |
| 1788343995 | 13.89° C | 17% | - | 0 mm | 0 m/s | - | - |
| 1788343697 | 13.89° C | 17% | - | 0 mm | 0.45 m/s, 236° | - | - |
* Rain latest hour (hover to see other rain measurements)
** Current wind speed in m/s (hover to see current wind gust speed)